User: anonymous   Login
Location: Sunrise Point
(46.9200°N, 121.5900°W)
Time: 10:24:18
(UTC-07:00)
Language:

Cosmos 2058 - Orbit

View from above orbital plane
View from above orbital plane
View from above satellite
View from above satellite

Ground track
Ground track

The orbit data is extracted from the following two-line orbital elements,

1 20465U 90010A   18111.03374438  .00000331  00000-0  25900-4 0  9998
2 20465  82.4872 311.8288 0015026 343.5740  16.4993 14.97703844531414
Epoch (UTC): 21 April 2018 00:48:35
Eccentricity: 0.0015026
inclination: 82.4872°
perigee height: 563 km
apogee height: 584 km
right ascension of ascending node: 311.8288°
argument of perigee: 343.5740°
revolutions per day: 14.97703844
mean anomaly at epoch: 16.4993°
orbit number at epoch: 53141

The dashed part of the orbit path shows where the satellite is in the earth's shadow,  

DLR